Simultaneous Nadir Overpasses (SNOs) Predictions

Prediction of SNOs between METOP-A and NOAA-19 Satellite Orbit:

Table of predicted SNOs for the next 14.0 days since TLE Epoch: 9/14/2012
Index Date (METOP-A) Time (METOP-A) METOP-A Lat,Lon Date (NOAA-19) Time (NOAA-19) NOAA-19 Lat,Lon Distance(km) Time Diff (sec)
1 09/22/2012 07:38:43 -73.27,-121.73 09/22/2012 07:37:29 -73.31,-122.19 15.17 74
2 09/22/2012 08:29:25 73.15, 45.35 09/22/2012 08:28:32 73.15, 45.40 1.78 53
3 09/22/2012 09:20:07 -73.15,-147.34 09/22/2012 09:19:31 -73.16,-147.36 1.41 36
4 09/22/2012 10:10:47 73.13, 19.96 09/22/2012 10:10:37 73.14, 19.89 2.91 10
5 09/22/2012 11:01:29 -73.12,-172.72 09/22/2012 11:01:35 -73.10,-172.77 2.84 6
6 09/22/2012 11:52:09 73.11, -5.42 09/22/2012 11:52:41 73.09, -5.52 3.58 32
7 09/22/2012 12:42:52
